Back to catalog

COSMOS 1779

GLONASS

AliveNavigationMEO
NORAD 16962·PAYLOAD·🇷🇺 Russia

Launched Sep 16, 1986 from Baikonur Cosmodrome

Loading…

Next Passes (next 24 hours)

TLE

FreshSource: Space-Track

Epoch: Sep 8, 2026, 09:12 UTC

1 16962U 86071B   26251.38360624  .00000034  00000-0  00000-0 0  9991
2 16962  64.9515  69.5677 0013869  45.9618 329.0827  2.13102698311026

Track COSMOS 1779 in real time with AllMySat

Download on the App Store